Location: Naloco
(16.5478°S, 37.1017°E)
Time: 02:46:37
(UTC+00:00)

FengYun 1-2 T - Pass Details

Date: 13 August 2020
Orbit: 847 x 880 km, 98.7° (Epoch: 23 September)

Event Time Altitude Azimuth Distance (km) Brightness Sun altitude
Rises 15:58:09 0° 166° (SSE) 3,459 7.1 -9.1°
Reaches altitude 10° 16:00:34 10° 164° (SSE) 2,512 6.4 -9.7°
Maximum altitude 16:06:08 78° 78° (ENE) 879 4.2 -11.0°
Drops below altitude 10° 16:11:38 10° 351° (N) 2,469 6.9 -12.3°
Sets 16:13:58 0° 350° (N) 3,396 7.6 -12.8°
